QPF
0.00 0.00 0.00 0.00 0.00 0.00 0.01 0.16 0.58 0.92 0.88 0.32 0.06 0.06 0.09 0.02 0.00 0.00 0.00 0.00 0.00 0.00 0.00 0.00 0.00 0.00 0.00 0.00 0.00 0.00 0.00 0.00
0.00 0.00 0.00 0.00 0.00 0.01 0.02 0.04 0.12 0.63 0.97 0.79 0.12 0.20 0.13 0.07 0.00 0.00 0.00 0.00 0.00 0.00 0.00 0.00 0.00 0.00 0.00 0.00 0.00 0.00 0.00 0.00
0.00 0.00 0.00 0.00 0.00 0.00 0.02 0.05 0.07 0.18 0.69 1.50 0.29 0.10 0.20 0.09 0.00 0.00 0.00 0.00 0.00 0.00 0.00 0.00 0.00 0.00 0.00 0.00 0.00 0.00 0.00 0.00
0.00 0.00 0.00 0.00 0.00 0.00 0.00 0.01 0.06 0.22 0.65 1.09 0.53 0.08 0.07 0.02 0.00 0.00 0.00 0.00 0.00 0.00 0.00 0.00 0.00 0.00 0.00 0.00 0.00 0.00 0.00 0.00
0.00 0.00 0.00 0.00 0.00 0.00 0.02 0.02 0.06 0.18 0.58 0.54 0.63 0.16 0.07 0.00 0.00 0.00 0.00 0.00 0.00 0.00 0.00 0.00 0.00 0.00 0.00 0.00 0.00 0.00 0.00 0.00
0.00 0.00 0.00 0.00 0.00 0.00 0.08 0.10 0.33 0.47 0.41 0.41 0.36 0.19 0.05 0.00 0.00 0.00 0.00 0.00 0.00 0.00 0.00 0.00 0.00 0.00 0.00 0.00 0.00 0.00 0.00 0.00
0.00 0.00 0.00 0.00 0.00 0.00 0.05 0.07 0.31 0.87 0.46 0.50 0.15 0.08 0.02 0.00 0.00 0.00 0.00 0.00 0.00 0.00 0.00 0.00 0.00 0.00 0.00 0.00 0.00 0.00 0.00 0.00
0.00 0.00 0.01 0.02 0.01 0.00 0.07 0.07 0.21 0.73 0.57 0.63 0.18 0.03 0.01 0.00 0.00 0.00 0.00 0.00 0.00 0.00 0.00 0.00 0.00 0.00 0.00 0.00 0.00 0.00 0.00 0.00
0.00 0.00 0.01 0.04 0.08 0.02 0.05 0.07 0.07 0.27 0.64 0.62 0.24 0.06 0.03 0.01 0.00 0.00 0.00 0.00 0.00 0.00 0.00 0.00 0.00 0.00 0.00 0.00 0.00 0.00 0.00 0.00
0.00 0.00 0.01 0.01 0.04 0.07 0.04 0.02 0.00 0.08 0.23 0.33 0.16 0.09 0.11 0.04 0.00 0.00 0.00 0.00 0.00 0.00 0.00 0.00 0.00 0.00 0.00 0.00 0.00 0.00 0.00 0.00
0.00 0.00 0.00 0.00 0.00 0.02 0.03 0.03 0.01 0.01 0.02 0.10 0.09 0.12 0.12 0.04 0.01 0.00 0.01 0.00 0.00 0.00 0.00 0.00 0.00 0.00 0.00 0.00 0.00 0.00 0.00 0.00
0.00 0.00 0.00 0.00 0.00 0.00 0.00 0.03 0.04 0.02 0.00 0.01 0.02 0.02 0.05 0.04 0.03 0.00 0.05 0.01 0.02 0.01 0.00 0.00 0.00 0.00 0.00 0.00 0.00 0.00 0.00 0.00
0.00 0.00 0.00 0.00 0.00 0.00 0.00 0.00 0.02 0.04 0.01 0.00 0.00 0.01 0.03 0.02 0.01 0.00 0.03 0.02 0.02 0.01 0.00 0.00 0.00 0.00 0.00 0.00 0.00 0.00 0.00 0.00
0.00 0.00 0.00 0.00 0.00 0.00 0.00 0.00 0.00 0.04 0.09 0.02 0.01 0.00 0.02 0.01 0.00 0.00 0.01 0.03 0.02 0.01 0.00 0.00 0.00 0.00 0.00 0.00 0.00 0.00 0.00 0.00
0.00 0.00 0.00 0.00 0.00 0.00 0.00 0.00 0.00 0.02 0.22 0.24 0.03 0.01 0.01 0.01 0.00 0.00 0.00 0.01 0.01 0.01 0.00 0.00 0.00 0.00 0.00 0.00 0.00 0.00 0.00 0.00
0.00 0.00 0.00 0.00 0.00 0.00 0.00 0.00 0.01 0.02 0.07 0.41 0.15 0.05 0.03 0.02 0.00 0.00 0.00 0.01 0.01 0.00 0.00 0.00 0.00 0.00 0.00 0.00 0.00 0.00 0.00 0.00
0.00 0.00 0.00 0.00 0.00 0.00 0.00 0.00 0.01 0.03 0.13 0.23 0.36 0.18 0.07 0.05 0.01 0.00 0.00 0.00 0.00 0.00 0.01 0.01 0.01 0.01 0.00 0.00 0.00 0.00 0.00 0.00
0.00 0.00 0.00 0.00 0.00 0.00 0.00 0.01 0.01 0.01 0.11 0.30 0.37 0.35 0.21 0.12 0.04 0.02 0.01 0.02 0.02 0.01 0.02 0.02 0.03 0.01 0.00 0.00 0.00 0.00 0.00 0.00
0.00 0.00 0.00 0.00 0.00 0.00 0.00 0.00 0.00 0.00 0.02 0.08 0.22 0.32 0.32 0.17 0.08 0.05 0.05 0.04 0.05 0.02 0.03 0.02 0.02 0.02 0.00 0.00 0.00 0.00 0.00 0.00
0.00 0.00 0.00 0.00 0.00 0.00 0.00 0.00 0.00 0.00 0.00 0.01 0.03 0.07 0.14 0.17 0.11 0.09 0.09 0.06 0.04 0.03 0.03 0.05 0.03 0.02 0.02 0.02 0.02 0.00 0.00 0.00
MSLP
1008.62 1008.85 1009.10 1009.34 1009.46 1009.67 1009.76 1009.84 1010.29 1010.99 1012.02 1013.25 1013.49 1013.56 1015.22 1014.98 1015.76 1016.58 1016.73 1016.97 1017.18 1017.75 1018.08 1018.30 1017.94 1018.79 1019.16 1019.50 1019.76 1020.28 1020.99 1021.55
1008.46 1008.65 1009.02 1009.46 1009.62 1009.69 1009.86 1009.79 1010.03 1010.77 1012.18 1012.40 1013.79 1013.53 1014.60 1015.16 1015.56 1016.38 1016.97 1017.28 1017.38 1017.96 1018.02 1018.20 1018.50 1018.93 1019.18 1019.57 1019.93 1020.46 1021.17 1021.57
1008.03 1008.42 1008.78 1009.15 1009.52 1009.77 1010.05 1010.20 1010.29 1010.69 1011.95 1012.47 1012.62 1013.87 1014.38 1015.22 1015.98 1016.66 1017.00 1017.41 1017.59 1017.69 1018.16 1018.29 1018.32 1018.85 1019.40 1019.82 1020.09 1020.74 1021.24 1021.95
1007.68 1008.08 1008.53 1008.72 1009.19 1009.33 1009.73 1010.08 1010.63 1011.14 1011.59 1012.08 1013.38 1013.58 1014.12 1014.94 1016.07 1016.72 1017.35 1017.66 1017.55 1018.12 1018.17 1018.38 1018.84 1019.12 1019.50 1019.59 1020.16 1020.92 1021.42 1021.97
1007.43 1007.89 1008.31 1008.63 1009.11 1009.32 1009.31 1009.85 1009.97 1010.55 1011.27 1012.70 1013.36 1013.95 1014.17 1015.08 1016.08 1016.85 1017.58 1017.50 1017.78 1018.36 1018.60 1018.68 1018.84 1019.27 1019.04 1019.54 1020.31 1020.96 1021.59 1022.10
1007.28 1007.68 1008.02 1008.45 1008.76 1009.02 1009.13 1009.45 1009.76 1009.69 1010.82 1011.41 1013.37 1013.78 1013.95 1015.02 1015.66 1016.82 1017.25 1017.35 1017.96 1018.63 1018.83 1018.88 1019.04 1018.91 1018.98 1019.53 1020.21 1020.99 1021.69 1022.13
1007.24 1007.55 1007.89 1008.19 1008.49 1008.85 1008.95 1008.81 1009.20 1009.43 1010.44 1010.70 1012.22 1013.02 1013.64 1014.85 1015.90 1016.51 1017.00 1017.46 1018.15 1018.47 1019.07 1018.77 1019.09 1018.88 1018.98 1019.50 1020.34 1021.09 1021.66 1021.99
1007.00 1007.31 1007.67 1008.06 1008.41 1008.73 1008.76 1008.30 1008.91 1007.75 1009.30 1010.43 1011.59 1012.17 1013.28 1014.57 1015.45 1016.14 1016.96 1017.31 1017.92 1018.38 1018.88 1018.89 1019.14 1019.07 1019.23 1019.62 1020.39 1021.31 1021.64 1022.23
1006.71 1007.02 1007.38 1007.83 1008.00 1008.30 1008.58 1008.65 1009.01 1008.93 1009.08 1010.44 1011.59 1012.42 1012.94 1014.08 1015.09 1016.03 1016.42 1017.00 1017.73 1018.43 1018.74 1018.98 1019.16 1019.15 1019.51 1019.86 1020.54 1021.18 1021.80 1022.31
1006.41 1006.97 1007.31 1007.69 1007.72 1007.97 1008.35 1008.98 1009.47 1009.36 1009.82 1010.88 1011.50 1012.02 1012.95 1013.89 1014.71 1015.56 1015.81 1016.84 1017.46 1018.24 1018.60 1018.93 1019.12 1019.37 1019.70 1019.96 1020.68 1021.02 1021.64 1022.16
1006.33 1007.07 1007.42 1007.71 1007.88 1007.98 1008.26 1008.74 1009.54 1009.77 1010.28 1010.80 1011.44 1011.99 1012.96 1013.48 1014.23 1014.84 1015.52 1016.27 1017.02 1017.77 1018.45 1018.47 1019.10 1019.51 1019.95 1020.26 1020.63 1021.13 1021.47 1022.04
1006.21 1006.98 1007.62 1007.81 1008.01 1008.28 1008.51 1008.81 1009.23 1009.60 1010.20 1010.85 1011.17 1011.65 1012.31 1012.90 1013.91 1014.57 1015.19 1015.92 1016.64 1017.37 1017.94 1018.24 1018.76 1019.34 1019.81 1020.48 1020.86 1020.82 1021.34 1021.76
1006.15 1006.92 1007.58 1007.99 1008.30 1008.54 1008.76 1008.88 1009.25 1009.84 1010.21 1010.46 1010.95 1011.45 1011.88 1012.75 1013.42 1014.26 1014.74 1015.58 1016.13 1016.84 1017.53 1018.04 1018.86 1019.25 1020.17 1020.96 1021.20 1021.14 1021.21 1021.47
1005.94 1006.75 1007.21 1007.81 1008.25 1008.37 1008.54 1008.84 1009.14 1009.39 1009.83 1010.23 1010.53 1011.05 1011.75 1012.51 1012.92 1013.75 1014.49 1015.29 1015.93 1016.50 1016.97 1017.89 1018.56 1019.06 1020.00 1020.84 1021.67 1021.85 1021.57 1021.48
1005.60 1006.40 1006.84 1007.65 1007.85 1008.11 1008.41 1008.75 1009.00 1009.32 1009.10 1009.63 1010.19 1010.58 1011.47 1012.04 1012.46 1012.98 1013.89 1014.77 1015.54 1015.99 1016.66 1017.17 1018.27 1019.07 1019.15 1019.82 1021.34 1021.58 1021.81 1021.66
1005.27 1006.04 1006.44 1007.13 1007.67 1008.05 1008.34 1008.14 1008.18 1008.19 1008.47 1008.32 1009.61 1010.09 1010.93 1011.88 1012.13 1012.53 1013.44 1014.55 1015.49 1015.87 1016.39 1016.89 1017.70 1018.84 1019.30 1019.47 1019.97 1020.53 1021.45 1022.13
1004.81 1005.73 1006.30 1006.76 1007.33 1007.56 1007.61 1007.58 1007.53 1007.55 1007.89 1008.34 1008.54 1009.92 1010.76 1011.54 1012.05 1012.62 1013.47 1014.30 1015.01 1015.80 1016.18 1016.94 1017.60 1018.36 1019.17 1019.62 1020.19 1020.48 1020.86 1021.32
1004.35 1005.34 1005.95 1006.37 1007.20 1007.51 1007.63 1007.61 1007.53 1007.28 1007.29 1008.09 1008.94 1009.83 1010.93 1011.58 1012.16 1012.85 1013.65 1014.47 1014.86 1015.40 1016.22 1016.92 1017.78 1018.66 1018.74 1018.97 1019.63 1020.23 1020.66 1021.07
1003.97 1004.91 1005.52 1006.08 1006.77 1007.25 1007.49 1007.63 1007.59 1007.57 1007.74 1008.25 1008.93 1009.74 1010.50 1011.47 1012.27 1013.09 1013.65 1014.11 1014.28 1015.37 1016.25 1017.16 1017.94 1018.61 1018.70 1018.51 1018.95 1019.32 1019.62 1020.10
1003.45 1004.49 1005.11 1005.77 1006.33 1006.85 1007.32 1007.52 1007.76 1007.94 1008.22 1008.55 1009.11 1009.77 1010.49 1011.29 1012.20 1013.04 1013.65 1014.24 1015.15 1015.91 1016.67 1017.23 1017.66 1018.10 1018.24 1018.28 1018.60 1018.87 1018.79 1018.78
Thickness
5696 5691 5688 5686 5683 5679 5676 5675 5671 5663 5656 5655 5655 5658 5646 5651 5648 5647 5650 5652 5651 5650 5653 5653 5662 5658 5659 5658 5657 5656 5650 5647
5693 5689 5682 5677 5674 5670 5669 5668 5665 5657 5649 5652 5648 5655 5650 5646 5646 5644 5643 5644 5645 5643 5647 5653 5655 5656 5657 5655 5655 5651 5646 5646
5690 5686 5679 5671 5665 5658 5653 5653 5651 5647 5642 5644 5637 5645 5645 5643 5641 5638 5641 5640 5641 5644 5646 5650 5653 5651 5651 5651 5653 5645 5644 5640
5690 5683 5678 5670 5661 5658 5647 5637 5630 5630 5637 5639 5635 5645 5646 5643 5637 5634 5635 5637 5642 5640 5644 5648 5647 5648 5648 5653 5647 5642 5641 5638
5687 5681 5674 5666 5655 5648 5640 5626 5622 5618 5624 5621 5629 5634 5639 5641 5637 5633 5632 5639 5641 5639 5642 5646 5648 5647 5651 5652 5643 5640 5637 5634
5683 5677 5671 5660 5652 5646 5636 5628 5616 5612 5622 5630 5625 5630 5637 5637 5640 5633 5634 5639 5637 5634 5638 5642 5644 5646 5649 5649 5640 5638 5633 5631
5677 5672 5666 5659 5652 5646 5638 5633 5626 5622 5621 5634 5631 5634 5639 5635 5632 5632 5631 5635 5633 5634 5633 5638 5640 5644 5646 5646 5636 5632 5629 5627
5673 5667 5662 5655 5647 5643 5639 5639 5632 5643 5634 5635 5636 5641 5638 5633 5631 5630 5628 5631 5631 5630 5629 5633 5635 5639 5640 5640 5630 5626 5625 5621
5673 5666 5660 5652 5649 5646 5641 5638 5633 5636 5637 5637 5633 5635 5637 5634 5630 5627 5629 5628 5628 5625 5626 5628 5631 5632 5633 5633 5626 5623 5619 5617
5672 5662 5655 5649 5647 5647 5643 5637 5632 5637 5637 5633 5634 5634 5635 5630 5629 5626 5629 5624 5625 5622 5624 5625 5625 5625 5624 5625 5625 5619 5614 5613
5668 5658 5651 5646 5644 5645 5644 5641 5634 5633 5632 5633 5634 5633 5628 5630 5631 5628 5627 5625 5625 5623 5621 5624 5620 5618 5617 5617 5618 5620 5614 5607
5667 5655 5647 5644 5642 5641 5641 5640 5639 5637 5635 5632 5634 5634 5633 5634 5629 5627 5626 5624 5622 5621 5619 5621 5619 5616 5616 5611 5609 5612 5613 5609
5665 5655 5645 5640 5638 5636 5635 5635 5635 5631 5631 5632 5632 5633 5634 5630 5629 5627 5624 5622 5621 5621 5619 5618 5613 5612 5606 5601 5601 5603 5603 5604
5665 5655 5647 5640 5635 5636 5634 5633 5632 5632 5630 5629 5629 5629 5630 5628 5630 5627 5623 5620 5619 5620 5619 5613 5610 5609 5603 5596 5588 5591 5593 5596
5665 5657 5648 5639 5637 5635 5633 5632 5629 5626 5627 5623 5621 5624 5623 5624 5627 5628 5625 5621 5617 5617 5615 5613 5606 5602 5606 5597 5580 5583 5583 5589
5665 5657 5650 5642 5635 5630 5628 5632 5631 5630 5623 5624 5618 5620 5621 5618 5623 5627 5625 5618 5612 5614 5612 5609 5605 5597 5597 5593 5591 5588 5580 5577
5666 5657 5648 5642 5636 5632 5628 5629 5627 5625 5621 5618 5623 5616 5616 5617 5620 5620 5619 5617 5614 5610 5608 5603 5600 5595 5588 5584 5582 5581 5580 5576
5666 5657 5649 5642 5633 5628 5624 5622 5621 5624 5624 5616 5613 5613 5611 5612 5613 5613 5611 5607 5609 5607 5602 5598 5591 5585 5584 5584 5580 5577 5574 5573
5666 5658 5651 5643 5635 5630 5626 5622 5622 5623 5618 5615 5612 5612 5610 5609 5609 5606 5605 5604 5606 5598 5593 5587 5582 5579 5579 5582 5579 5578 5577 5573
5666 5657 5651 5644 5639 5633 5626 5622 5618 5616 5614 5612 5610 5609 5609 5606 5603 5601 5597 5594 5591 5586 5583 5580 5578 5576 5576 5578 5577 5576 5577 5578